Medford, OR

3:05 AM PDT on August 23, 2019 (GMT -0700)
Rogue Valley International-Medford

Weather History for KMFR - July, 2019

Change the Weather History Date:

Monday, July 22, 2019

  Actual Average Record
Temperature  
Mean Temperature 81 °F 75 °F  
Max Temperature 93 °F 92 °F 106 °F (2006)
Min Temperature 68 °F 58 °F 43 °F (1965)
Degree Days  
Heating Degree Days 0 0  
Month to date heating degree days 0 1  
Since 1 June heating degree days 31 55  
Since 1 July heating degree days 0 1  
Cooling Degree Days 16 10  
Month to date cooling degree days 188 189  
Year to date cooling degree days 382 335  
Since 1 June cooling degree days 350 297  
Growing Degree Days 30 (Base 50)    
Moisture  
Dew Point 50 °F    
Average Humidity 40    
Maximum Humidity 59    
Minimum Humidity 20    
Precipitation  
Precipitation 0.00 in 0.01 in 0.33 in (1987)
Month to date precipitation T 0.21  
Year to date precipitation 13.86 9.67  
Snow  
Snow 0.00 in 0.00 in - ()
Month to date snowfall 0.0 0.0  
Since 1 July snowfall 0.0 0.0  
Snow Depth 0.00 in    
Sea Level Pressure  
Sea Level Pressure 29.94 in    
Wind  
Wind Speed 7 mph (NNW)    
Max Wind Speed 17 mph    
Max Gust Speed 23 mph    
Visibility 10 miles    
Events      
T = Trace of Precipitation, MM = Missing Value Source: NWS Daily Summary

Daily Weather History Graph

Daily Weather History Graph

Search for Another Location

Airport or City:

Astronomy

Jul. 22, 2019 Rise Set
Actual Time 5:54 AM PDT 8:41 PM PDT
Civil Twilight 5:21 AM PDT 9:14 PM PDT
Nautical Twilight 4:39 AM PDT 9:55 PM PDT
Astronomical Twilight 3:51 AM PDT 10:42 PM PDT
Moon 11:58 PM PDT (7/22) 11:21 AM PDT (7/22)
Length of Visible Light 15h 52m
Length of Day
14h 47m
Waning Gibbous, 71% of the Moon is Illuminated
Jul 22
Waning Gibbous
Jul 24
Last Quarter
Jul 31
New
Aug 7
First Quarter
Aug 15
Full

Hourly Weather History & Observations

Time (PDT) Temp. Dew Point Humidity Pressure Visibility Wind Dir Wind Speed Gust Speed Precip Events Conditions
12:53 AM 75.0 °F 50.0 °F 41% 29.92 in 10.0 mi NNE 4.6 mph - N/A   Clear
1:53 AM 73.9 °F 53.1 °F 48% 29.92 in 10.0 mi Calm Calm - N/A   Clear
2:53 AM 73.0 °F 54.0 °F 51% 29.93 in 10.0 mi NNW 5.8 mph - N/A   Clear
3:53 AM 72.0 °F 54.0 °F 53% 29.94 in 10.0 mi NW 6.9 mph - N/A   Clear
4:53 AM 70.0 °F 54.0 °F 57% 29.94 in 10.0 mi WNW 4.6 mph - N/A   Clear
5:53 AM 68.0 °F 54.0 °F 61% 29.95 in 10.0 mi Calm Calm - N/A   Clear
6:53 AM 69.1 °F 52.0 °F 54% 29.96 in 10.0 mi NNE 4.6 mph - N/A   Scattered Clouds
7:53 AM 70.0 °F 54.0 °F 57% 29.98 in 10.0 mi NW 4.6 mph - N/A   Clear
8:53 AM 73.0 °F 53.1 °F 49% 29.99 in 10.0 mi West 4.6 mph - N/A   Clear
9:53 AM 75.9 °F 53.1 °F 45% 29.98 in 10.0 mi NW 6.9 mph - N/A   Clear
10:53 AM 80.1 °F 52.0 °F 38% 29.97 in 10.0 mi West 4.6 mph - N/A   Clear
11:53 AM 84.0 °F 50.0 °F 31% 29.96 in 10.0 mi Variable 5.8 mph - N/A   Clear
12:53 PM 84.9 °F 48.9 °F 29% 29.95 in 10.0 mi NW 6.9 mph - N/A   Scattered Clouds
1:53 PM 88.0 °F 50.0 °F 27% 29.93 in 10.0 mi NW 9.2 mph - N/A   Clear
2:53 PM 90.0 °F 48.0 °F 24% 29.91 in 10.0 mi WNW 9.2 mph 18.4 mph N/A   Clear
3:53 PM 91.9 °F 48.0 °F 22% 29.90 in 10.0 mi WNW 11.5 mph - N/A   Clear
4:53 PM 93.0 °F 46.0 °F 20% 29.88 in 10.0 mi WNW 13.8 mph - N/A   Clear
5:53 PM 93.0 °F 46.0 °F 20% 29.88 in 10.0 mi WNW 11.5 mph - N/A   Clear
6:53 PM 91.9 °F 46.0 °F 21% 29.89 in 10.0 mi NNW 12.7 mph 19.6 mph N/A   Clear
7:06 PM 90.0 °F 46.0 °F 22% 29.93 in 10.0 mi North 15.0 mph - N/A   Clear
7:53 PM 87.1 °F 45.0 °F 23% 29.91 in 10.0 mi North 10.4 mph - N/A   Clear
8:53 PM 82.9 °F 45.0 °F 26% 29.94 in 10.0 mi NNW 8.1 mph - N/A   Clear
9:53 PM 79.0 °F 45.0 °F 30% 29.96 in 10.0 mi North 6.9 mph - N/A   Clear
10:53 PM 75.0 °F 45.0 °F 34% 29.98 in 10.0 mi NNE 6.9 mph - N/A   Scattered Clouds
11:53 PM 73.9 °F 46.0 °F 37% 29.98 in 10.0 mi North 3.5 mph - N/A   Partly Cloudy